Current Version              Previous Version:    01  02  03  04  05  06  07  08  09  10  11  12  13  14  15  16  17  18  19  20  21  22  23  24  25  26  27  28  29  30  
   31  32  33  34  35  36  37  38  39  40  41  42  43  44  45  46  47  48  49  50  51  52  53  54  55  56  57  58  59  60  

[Printable]
562
ASUS44 KLUB 201501
RWRTX
WEST TEXAS WEATHER ROUNDUP
NATIONAL WEATHER SERVICE LUBBOCK TX
1000 AM CDT SAT SEP 20 2014

NOTE: "FAIR" INDICATES FEW OR NO CLOUDS BELOW 12,000 FEET WITH NO
SIGNIFICANT WEATHER AND/OR OBSTRUCTIONS TO VISIBILITY.

TXZ004-006>008-010-012-014-016-OKZ002-201600-
TEXAS PANHANDLE/OKLAHOMA PANHANDLE

CITY           SKY/WX    TMP DP  RH WIND       PRES   REMARKS
AMARILLO       MOSUNNY   71  66  84 S7        30.09S
BORGER         SUNNY     74  65  73 W6        30.07R
CANADIAN       SUNNY     74  68  82 SW9       30.04R
DALHART        SUNNY     71  64  78 SW9       30.10R
DUMAS          MOSUNNY   69  67  93 SW8       30.09R
GUYMON         SUNNY     74  65  73 SW15      30.03R
HEREFORD       CLOUDY    70  67  90 CALM      30.10R
PAMPA          SUNNY     70  64  81 S9        30.08R
PERRYTON       SUNNY     74  64  73 SW12      30.05R
$$

TXZ026-029-035-045-048-201600-
SOUTHERN PANHANDLE/SOUTH PLAINS/ROLLING PLAINS

CITY           SKY/WX    TMP DP  RH WIND       PRES   REMARKS
CHILDRESS      CLOUDY    73  67  81 SE7       30.04R
SEMINOLE       CLOUDY    69  69  99 CALM      30.06R FOG
LUBBOCK        CLOUDY    70  67  90 SE8       30.06R
PLAINVIEW      CLOUDY    70  69  96 E6        30.06R FOG
SNYDER         TSTM      70  69  98 SE9       30.03R
$$

TXZ052-054-060>062-072-078-127-140-154-169-201600-
PERMIAN BASIN/CONCHO VALLEY/BIG COUNTRY/EDWARDS PLATEAU

CITY           SKY/WX    TMP DP  RH WIND       PRES   REMARKS
ABILENE        CLOUDY    77  70  79 S12       30.03R
BIG SPRING     CLOUDY    74  70  87 SE12      30.04R
JUNCTION       PTSUNNY   76  69  79 SW5       30.02R
MIDLAND        PTSUNNY   73  70  90 SE10      30.02R
ODESSA         CLOUDY    73  69  87 S7        30.03R
SAN ANGELO     CLOUDY    75  70  84 SE8       30.01R
SONORA         CLOUDY    73  70  88 SE8       30.06R
SWEETWATER     CLOUDY    72  72 100 NE3       30.07R
WINK           CLOUDY    74  71  91 E7        30.00R
$$

TXZ055-058-074-075-080-082-201600-
FAR WEST/SOUTHWEST MOUNTAINS/TRANS PECOS

CITY           SKY/WX    TMP DP  RH WIND       PRES   REMARKS
ALPINE         MOSUNNY   73  65  74 CALM      30.16R
DRYDEN           N/A     80  72  76 E8        29.98R
EL PASO        MOSUNNY   72  65  78 N6        30.06R
FORT STOCKTON  CLOUDY    70  69  97 W8        30.02R
GUADALUPE PASS FOG       65  65 100 NE10        N/A  VSB 1/4
MARFA          CLOUDY    68  64  88 SE3       30.15R
PRESIDIO       FAIR      79  66  65 E6        30.01R
$$

TXZ014-016-019-021>030-083-201600
TEXAS TECH WEST TEXAS MESONET/TEXAS PANHANDLE/NORTHERN SOUTH PLAINS

CITY           SKY/WX    TMP DP  RH WIND       PRES   REMARKS
ABERNATHY 5ENE   N/A     67  66  94 E5        30.08R
AMARILLO 9NNE    N/A     73  65  78 S3        30.07S
AMARILLO 7SSE    N/A     69  66  90 SE6       30.10S
AMHERST 1NE      N/A     67  67  97 CALM      30.08R
BOOTLEG 11WNW    N/A     64  63  97 NW3       30.14S
CANADIAN 6E      N/A     73  66  80 S9        30.03R
CAPROCK CYN SP   N/A     69  68  98 E2        30.06R
CHILDRESS 2NNE   N/A     71  67  85 SE6       30.03S
CLARENDON 2WSW   N/A     71  66  83 SE6       30.07R
CLAUDE 12SW      N/A     68  65  93 SE3       30.09R
DIMMITT 2NE      N/A     66  65  97 NE5       30.09S
FLOYDADA 2NNE    N/A     68  67  98 E8        30.06R
FRIONA 2NE       N/A     65  64  96 NE2       30.11S
GOODLETT 3W      N/A     73  66  79 SE6       30.01S
HART 3N          N/A     67  66  97 SE3       30.09R
HEREFORD 2NW     N/A     67  65  91 NE1       30.09S
MCLEAN 1E        N/A     70  66  86 S5        30.06R
MEMPHIS 1NE      N/A     72  66  81 E2        30.04R
MULESHOE 2SSW    N/A     67  66  94 N2        30.09R
OLTON 6S         N/A     68  66  93 E3        30.07R
PALO DURO SP     N/A     67  65  91 SE2       30.10R
PAMPA 2E         N/A     68  67  97 S6        30.08R
PLAINVIEW 1S     N/A     68  67  98 E5        30.07R
SILVERTON 7ESE   N/A     68  67  94 E3        30.08R
TULIA 2ENE       N/A     67  67  97 E6        30.08R
TURKEY 2WSW      N/A     70  68  95 E6        30.04R
UMBARGER 3NNE    N/A     67  66  99 SE3       30.10S
$$

TXZ033>036-039>041-045>048-201600
TEXAS TECH WEST TEXAS MESONET/SOUTH PLAINS

CITY           SKY/WX    TMP DP  RH WIND       PRES   REMARKS
AIKEN 3WSW       N/A     68  68  99 E3        30.08R
ANDREWS 2NE      N/A     72  68  87 S6        30.03S
ANTON 6SSW       N/A     68  67  94 SE6       30.06R
BROWNFIELD 2S  RAIN      66  65  97 N7        30.04S
DENVR CTY 7WNW   N/A     67  65  93 N7        30.07R
LAMESA 2SE       N/A     70  69  95 SE8       30.04R
LEVELLAND 4S     N/A     68  66  93 E5        30.06R
LUBBOCK 3WNW     N/A     70  67  91 SE7       30.05S
MORTON 1ENE      N/A     68  65  91 N6        30.09R
ODONNELL 1N      N/A     68  66  94 E8        30.04R
PLAINS 3N        N/A     68  66  94 N9        30.07R
RALLS 1SE        N/A     68  68  98 SE9       30.06R
REESE CENTER     N/A     68  66  95 E7        30.06R
SEAGRAVES 1SW    N/A     68  67  98 S3        30.04R
SEMINOLE 2NNE    N/A     69  68  96 SW2       30.04R
SLATON 2NE     RAIN      68  67  97 E6        30.05R
SNYDER 3E        N/A     69  68  97 SE8       30.02S
SUNDOWN 8SW      N/A     67  66  96 N5        30.07R
TAHOKA 3NNE      N/A     68  66  94 E7        30.04R
WOLFFORTH 6SSW RAIN      68  67  98 SE6       30.06R
$$

TXZ031-032-036>038-042>044-201600-
TEXAS TECH WEST TEXAS MESONET/ROLLING PLAINS

CITY           SKY/WX    TMP DP  RH WIND       PRES   REMARKS
ASPERMONT 3NE    N/A     74  70  88 SE6       30.01R
FLUVANNA 3WNW  LGT RAIN  69  67  93 SE8       30.02R
GRAHAM 5SSW    RAIN      68  67  95 E9        30.04R
GUTHRIE 10WSW  LGT RAIN  71  69  95 SE8       30.02R
HASKELL 1NW      N/A     73  69  87 SE8       30.00S
JAYTON 1SSE      N/A     72  70  92 E6        30.02R
KNOX CITY 3NW    N/A     76  69  79 SE9       30.01R
LK A HENRY 1NW   N/A     71  70  98 E5        30.02R
NORTHFIELD 1S    N/A     72  69  88 E5        30.03R
ODELL 4ENE       N/A     75  70  84 SE9       30.02R
PADUCAH 10SW     N/A     72  70  93 SE6       30.02R
POST 1NE       LGT RAIN  70  72 100 SE9       30.03R
RRING SPRGS 3N   N/A     70  69  98 SE5       30.04S
SEYMOUR 3NW      N/A     75  69  81 S9        30.01R
SPUR 1W        RAIN      69  67  93 E5        30.03R
WEINERT 2NNE     N/A     75  71  87 SE8       30.01R
WHITE RVR 6NE  LGT RAIN  68  67  96 E7        30.04R
$$

TXZ052-054-060>062-072-078-127-140-154-169-201600-
TEXAS TECH WEST TEXAS MESONET/PERMIAN BASIN/
CONCHO VALLEY/BIG COUNTRY/EDWARDS PLATEAU

CITY           SKY/WX    TMP DP  RH WIND       PRES   REMARKS
COYANOSA 2N      N/A     75  71  87 W8        29.99R
JUNCTION 1SSW    N/A     77  69  77 S5        30.01R
MERTZON 3NNE     N/A     72  70  93 E3        30.03R
SAN ANGELO 7NW   N/A     73  69  86 E6        30.02R
STRLNG CT 4WSW   N/A     72  70  93 E7        30.04R
ST LAWRNCE 5SW   N/A     72  70  95 SE7       30.02R
SWEETWATR 11SW   N/A     70  69  97 SE7       30.04S
WALL 1E          N/A     73  68  86 SE6       30.02S
$$

TXZ055-058-074-075-080-082-201600-
TEXAS TECH WEST TEXAS MESONET/FAR WEST/SOUTHWEST MOUNTAINS/TRANS PECOS

CITY           SKY/WX    TMP DP  RH WIND       PRES   REMARKS
PRSMN GAP BBNP   N/A     76  70  80 NE8       30.01S
GUADLPE MTN NP   N/A     63  62  96 CALM      30.18R
$$